Regional Weather Roundup
Issued by NWS

Home | Current Version | Previous Version | Text Only | Print | Product List | Glossary On
Versions: 1 2 3 4 5 6 7 8 9 10 11 12 13 14 15 16 17 18 19 20 21 22 23 24 25 26 27 28 29 30 31 32 33 34 35 36 37 38 39 40 41 42 43 44 45 46 47 48 49 50
000
ASUS43 KDTX 190301
RWRMI
MICHIGAN HOURLY REGIONAL WEATHER ROUNDUP
NATIONAL WEATHER SERVICE DETROIT/PONTIAC MI
1100 PM EDT SAT APR 18 2015

NOTE: "FAIR" INDICATES FEW OR NO CLOUDS BELOW 12,000 FEET WITH NO
SIGNIFICANT WEATHER AND/OR OBSTRUCTION TO VISIBILITY.

MIZ047>049-052>055-059>063-066>070-074>076-081>083-190400-
SOUTHEAST LOWER MICHIGAN

CITY           SKY/WX    TMP DP  RH WIND       PRES   REMARKS
ADRIAN         MOCLDY    53  25  33 E10       30.13R
ALMA           CLEAR     44  35  70 NE9       30.16S
ANN ARBOR      MOCLDY    54  26  34 E9G20     30.14R
BAD AXE        CLEAR     39  31  71 NE7       30.20S WCI  34
CARO           CLEAR     43  30  61 CALM      30.17S
DETROIT CITY   MOCLDY    48  29  47 NE12      30.14F
DETROIT        MOCLDY    52  30  43 NE8       30.15R
FLINT          PTCLDY    47  30  51 E9        30.17R
GROSSE ILE     MOCLDY    48  34  57 NE10      30.13R
HILLSDALE      MOCLDY    56  20  25 E10       30.11S
HOWELL         PTCLDY    50  23  34 NE10      30.14R

CITY           SKY/WX    TMP DP  RH WIND       PRES   REMARKS
JACKSON        MOCLDY    54  19  25 E9        30.13R
LAMBERTVILLE   PTCLDY    52  32  46 E5        30.13S
LANSING        PTCLDY    49  25  39 E10       30.14R
LAPEER         FAIR      44  29  56 E3        30.17S
MASON          PTCLDY    50  22  34 E5        30.14R
MONROE         MOCLDY    50  34  53 NE6       30.13R
PONTIAC        PTCLDY    47  29  49 NE10G18   30.14S
PORT HOPE        N/A     42  34  73 NE10      30.19F
PORT HURON     PTCLDY    41  32  70 NE9       30.17R
TRI CITIES     CLEAR     45  35  68 NE10      30.18S
TROY           MOCLDY    49  29  46 NE13      30.16S
SAGINAW HB     CLEAR     41  32  70 NE7       30.17S
$$
MIZ043>046-050>051-056>058-064>065-071>073-077>080-190400-
SOUTHWEST LOWER MICHIGAN

CITY           SKY/WX    TMP DP  RH WIND       PRES   REMARKS
BATTLE CREEK   PTCLDY    58  24  27 E9        30.11R
BENTON HARBOR  MOCLDY    59  34  39 E10       30.04R
BIG RAPIDS     CLEAR     48  23  37 E12       30.14S
COLDWATER      MOCLDY    57  22  25 E10       30.09S
FREMONT        FAIR      52   5  14 E13       30.11R
HOLLAND        PTCLDY    57  29  34 E14G21    30.09R
GRAND RAPIDS   FAIR      53  28  38 E12       30.12R
IONIA          FAIR      51  32  48 E10       30.13R
KALAMAZOO      MOCLDY    59  27  29 E8        30.10R
LUDINGTON      CLEAR     56  19  23 E15       30.09S
MARSHALL       MOCLDY    55  25  31 E7        30.11R
MOUNT PLEASANT CLEAR     43  31  62 NE5       30.17S
MUSKEGON       CLEAR     55  10  16 E14       30.09R
SOUTH HAVEN    MOCLDY    60  25  26 E13G18    30.06R
$$
MIZ016>042-190400-
NORTHERN LOWER MICHIGAN

CITY           SKY/WX    TMP DP  RH WIND       PRES   REMARKS
ALPENA         CLEAR     36  27  69 CALM      30.23S
BEAVER ISLAND  CLEAR     44  27  51 E10G16    30.18F
BELLAIRE       CLEAR     52  20  29 E3        30.17F
CADILLAC       CLEAR     47  24  41 E13G24    30.14S
CHARLEVOIX     CLEAR     50  24  36 SE9       30.19F
FRANKFORT      CLEAR     55  21  27 E6        30.11S
GAYLORD        CLEAR     46  22  38 VRB3      30.18F
GRAYLING       CLEAR     44  21  40 E7        30.19F
HARBOR SPRINGS CLEAR     47  23  37 E10       30.17F
HOUGHTON LAKE  CLEAR     40  26  57 E7        30.19S
MANISTEE       CLEAR     55  25  30 SE16G25   30.10S
OSCODA         CLEAR     35  29  80 CALM      30.21F
PELLSTON       CLEAR     39  24  55 E6        30.20F WCI  35
ROGERS CITY    CLEAR     35  30  83 CALM      30.23S
TRAVERSE CITY  CLEAR     39  31  72 CALM      30.14S
$$
MIZ007>008-015-190400-
EASTERN UPPER MICHIGAN

CITY           SKY/WX    TMP DP  RH WIND       PRES   REMARKS
KINROSS        CLEAR     36  28  75 CALM      30.22S
MACKINAC ISLAN CLEAR     42  26  52 NE8       30.21F
NEWBERRY       CLEAR     33  30  86 NE7       30.19F WCI  27
S. S. MARIE    FAIR      35  28  75 CALM      30.22S
$$
MIZ004>006-011>014-085-190400-
CENTRAL UPPER MICHIGAN

CITY           SKY/WX    TMP DP  RH WIND       PRES   REMARKS
MANISTIQUE     CLEAR     40  28  62 NE8       30.17S
ESCANABA       PTCLDY    45  28  53 NE7       30.15S
MENOMINEE      PTCLDY    45  28  53 E14       30.12F
$$
MIZ001>003-009>011-084-190400-
WESTERN UPPER MICHIGAN

CITY           SKY/WX    TMP DP  RH WIND       PRES   REMARKS
IRON MOUNTAIN  PTCLDY    46  30  53 NE9       30.12S
HOUGHTON       CLEAR     34  29  82 E12       30.15F WCI  25
COPPER HARBOR    N/A     33  27  78 S6        30.17F WCI  28
IRONWOOD       MOCLDY    52  27  37 E7        30.01F
$$

ABBREVIATIONS USED IN REMARKS
   TC - TEMPERATURE IN CELSIUS
  WCI - WIND CHILL INDEX
   HX - HEAT INDEX
  VSB - VISIBILITY



USA.gov is the U.S. government's official web portal to all federal, state and local government web resources and services.